Stations météo

réclame
Mon MeteoGroup
Cazaux, France (7502): Température de l'air & dewpoint: 11.01.2018 01:00:00 - 17.01.2018 01:00:00 (CET)Cazaux, France (7502): Vitesse du vent & gusts: 11.01.2018 01:00:00 - 17.01.2018 01:00:00 (CET)Cazaux, France (7502): Direction du vent: 11.01.2018 01:00:00 - 17.01.2018 01:00:00 (CET)Cazaux, France (7502): reduced air pressure: 11.01.2018 01:00:00 - 17.01.2018 01:00:00 (CET)Cazaux, France (7502): visibility: 11.01.2018 01:00:00 - 17.01.2018 01:00:00 (CET)Cazaux, France (7502): Quantités de précipitations: 11.01.2018 01:00:00 - 17.01.2018 01:00:00 (CET)
Date & Time tt [°C] td [°C] ff [km/h] ff [knt] fx [km/h] fx [knt] dd ppp [hPa] vv [km] rr [mm]
17.01.2018 01:00:00 11,5 8,4 28 15 63 34 WNW 1018,9 10 -
17.01.2018 00:00:00 11,2 9,8 37 20 80 43 W 1018,5 10 0,2
16.01.2018 23:00:00 11,3 10,5 31 17 65 35 W 1018,2 3,4 1,0
16.01.2018 22:00:00 11,6 10,3 26 14 70 38 W 1018,4 10 -
16.01.2018 21:00:00 13,4 11,3 34 18 65 35 W 1017,8 10 0,0
16.01.2018 20:00:00 13,2 11,4 34 18 57 31 W 1017,9 10 0,0
16.01.2018 19:00:00 13,0 11,7 35 19 67 36 W 1017,8 9 -
16.01.2018 18:00:00 13,1 12,0 35 19 67 36 WSW 1017,9 10 0,0
16.01.2018 17:00:00 13,3 11,9 31 17 57 31 WSW 1018,2 10 0,0
16.01.2018 16:00:00 13,3 11,9 31 17 65 35 WSW 1018,5 10 -
16.01.2018 15:00:00 13,0 12,2 31 17 57 31 WSW 1018,8 10 0,2
16.01.2018 14:00:00 13,4 12,1 29 16 55 30 WSW 1019,7 17 0,2
16.01.2018 13:00:00 13,7 11,9 34 18 63 34 WSW 1020,3 10 -
16.01.2018 12:00:00 13,6 11,6 29 16 59 32 W 1020,7 10 0,0
16.01.2018 11:00:00 13,5 11,2 29 16 52 28 W 1020,8 10 0,0
16.01.2018 10:00:00 12,9 11,0 35 19 63 34 W 1020,2 9 -
16.01.2018 09:00:00 12,4 10,8 28 15 55 30 W 1019,5 10 0,0
16.01.2018 08:00:00 12,7 11,3 29 16 54 29 W 1018,9 10 0,0
16.01.2018 07:00:00 12,1 11,2 31 17 57 31 W 1017,8 5 -
16.01.2018 06:00:00 12,7 10,4 29 16 59 32 W 1017,5 10 0,0
16.01.2018 05:00:00 12,7 10,8 29 16 59 32 W 1017,6 10 0,2
16.01.2018 04:00:00 12,1 11,5 31 17 55 30 W 1017,4 9 -
16.01.2018 03:00:00 12,2 11,4 31 17 61 33 W 1017,6 3,6 1,0
16.01.2018 02:00:00 12,0 11,4 18 10 44 24 W 1017,5 6 0,6
16.01.2018 01:00:00 12,4 11,6 26 14 63 34 WSW 1018,0 10 -
16.01.2018 00:00:00 12,7 11,8 29 16 55 30 WSW 1018,0 10 0,0
15.01.2018 23:00:00 12,6 11,5 34 18 57 31 WSW 1017,6 10 0,2
15.01.2018 22:00:00 11,7 11,2 28 15 55 30 WSW 1017,9 7 -
15.01.2018 21:00:00 11,0 10,4 34 18 57 31 SW 1017,6 6 0,4
15.01.2018 20:00:00 10,7 10,1 31 17 61 33 WSW 1017,6 9 0,6
15.01.2018 19:00:00 9,6 9,0 34 18 55 30 SW 1018,1 4,2 -
15.01.2018 18:00:00 9,2 8,4 31 17 52 28 SW 1018,4 4,1 0,6
15.01.2018 17:00:00 10,0 6,7 31 17 57 31 SW 1018,4 10 0,0
15.01.2018 16:00:00 11,4 6,7 28 15 50 27 SW 1018,7 10 -
15.01.2018 15:00:00 11,6 6,5 29 16 54 29 SW 1018,9 10 0,0
15.01.2018 14:00:00 12,2 6,9 24 13 42 23 WSW 1020,2 10 0,0
15.01.2018 13:00:00 12,8 7,5 21 11 41 22 WSW 1021,0 10 -
15.01.2018 12:00:00 12,0 6,9 18 10 41 22 SW 1021,6 10 0,0
15.01.2018 11:00:00 11,3 6,8 16 9 31 17 SW 1022,1 10 0,0
15.01.2018 10:00:00 10,4 6,2 13 7 21 11 WSW 1022,4 10 -
15.01.2018 09:00:00 8,5 7,0 5 3 15 8 WSW 1022,4 10 0,0
15.01.2018 08:00:00 8,0 6,5 9 5 16 9 W 1021,9 10 0,0
15.01.2018 07:00:00 8,1 8,0 9 5 15 8 W 1021,3 10 -
15.01.2018 06:00:00 6,6 6,5 4 2 9 5 S 1021,4 9 0,0
15.01.2018 05:00:00 6,4 6,3 4 2 11 6 S 1021,4 0,7 0,0
15.01.2018 04:00:00 6,7 6,6 5 3 11 6 SSE 1021,6 0,2 -
15.01.2018 03:00:00 6,9 6,6 8 4 11 6 SSE 1021,4 0,4 0,0
15.01.2018 02:00:00 6,3 5,9 4 2 8 4 S 1021,7 3,9 0,0
15.01.2018 01:00:00 7,1 6,7 2 1 9 5 - 1021,7 9 -
15.01.2018 00:00:00 7,6 7,3 5 3 13 7 N 1021,5 10 0,0
14.01.2018 23:00:00 7,9 7,6 4 2 9 5 - 1020,9 10 0,0
14.01.2018 22:00:00 8,0 7,7 5 3 9 5 NNE 1020,1 10 -
14.01.2018 21:00:00 8,2 7,9 4 2 9 5 NNW 1019,7 10 0,0
14.01.2018 20:00:00 8,2 7,9 5 3 13 7 - 1019,0 10 0,0
14.01.2018 19:00:00 8,1 7,8 9 5 13 7 NE 1017,7 10 -
14.01.2018 18:00:00 8,4 8,1 8 4 15 8 E 1016,9 8 0,2
14.01.2018 17:00:00 8,8 8,5 9 5 21 11 SE 1016,2 10 0,2
14.01.2018 16:00:00 8,7 8,4 9 5 18 10 SSE 1015,8 2,9 -
14.01.2018 15:00:00 8,7 8,4 11 6 21 11 S 1015,5 10 0,4
14.01.2018 14:00:00 8,6 8,3 13 7 22 12 SSW 1015,5 9 2,0
14.01.2018 13:00:00 8,1 7,8 9 5 15 8 SSE 1015,5 10 -
14.01.2018 12:00:00 7,4 7,1 8 4 11 6 SSE 1016,0 10 0,4
14.01.2018 11:00:00 6,9 6,6 5 3 9 5 ESE 1015,7 10 0,2
14.01.2018 10:00:00 6,1 5,8 2 1 9 5 - 1015,2 10 -
14.01.2018 09:00:00 6,0 5,7 4 2 11 6 - 1014,9 10 0,0
14.01.2018 08:00:00 6,4 6,1 8 4 11 6 S 1014,4 10 0,0
14.01.2018 07:00:00 6,3 5,9 5 3 16 9 SE 1013,9 10 -
14.01.2018 06:00:00 6,9 6,5 11 6 21 11 S 1013,6 10 0,0
14.01.2018 05:00:00 6,9 6,5 15 8 28 15 SSE 1013,4 10 0,8
14.01.2018 04:00:00 7,0 6,6 21 11 34 18 SSE 1013,4 10 -
14.01.2018 03:00:00 6,9 6,5 21 11 28 15 SE 1013,6 10 0,2
14.01.2018 02:00:00 6,3 5,7 13 7 18 10 SE 1014,1 10 0,2
14.01.2018 01:00:00 6,1 4,7 13 7 26 14 ESE 1014,7 10 -
14.01.2018 00:00:00 7,3 5,1 11 6 34 18 S 1015,1 10 0,0
13.01.2018 23:00:00 9,3 5,8 22 12 35 19 SSW 1014,9 10 0,0
13.01.2018 22:00:00 9,6 5,8 18 10 31 17 SW 1014,9 10 -
13.01.2018 21:00:00 10,2 5,6 21 11 37 20 WSW 1014,3 10 0,0
13.01.2018 20:00:00 10,8 6,9 16 9 26 14 SW 1014,1 10 0,0
13.01.2018 19:00:00 8,6 5,7 11 6 18 10 S 1013,9 10 -
13.01.2018 18:00:00 8,4 5,3 11 6 16 9 SSE 1013,6 10 0,0
13.01.2018 17:00:00 8,2 5,1 8 4 11 6 SSE 1013,8 10 0,0
13.01.2018 16:00:00 8,8 4,6 8 4 15 8 SE 1013,5 10 -
13.01.2018 15:00:00 8,5 4,3 11 6 16 9 SE 1014,0 10 0,0
13.01.2018 14:00:00 7,8 3,6 9 5 18 10 SE 1014,2 10 0,0
13.01.2018 13:00:00 7,7 3,4 13 7 21 11 SE 1014,6 10 -
13.01.2018 12:00:00 6,9 3,1 9 5 18 10 SE 1015,9 10 0,0
13.01.2018 11:00:00 5,2 3,5 11 6 18 10 SE 1016,0 10 0,0
13.01.2018 10:00:00 4,1 3,2 9 5 15 8 ESE 1016,2 10 -
13.01.2018 09:00:00 2,6 1,9 9 5 15 8 ESE 1016,2 10 0,0
13.01.2018 08:00:00 3,3 2,6 13 7 21 11 E 1016,2 10 0,0
13.01.2018 07:00:00 3,4 2,8 8 4 16 9 SE 1016,8 10 -
13.01.2018 06:00:00 3,4 3,0 13 7 22 12 ESE 1016,7 10 0,0
13.01.2018 05:00:00 3,8 3,5 15 8 24 13 E 1017,5 10 0,0
13.01.2018 04:00:00 4,1 3,8 13 7 24 13 E 1018,6 10 -
13.01.2018 03:00:00 4,1 4,0 15 8 24 13 E 1019,4 10 0,0
13.01.2018 02:00:00 4,3 4,2 16 9 26 14 ESE 1020,4 10 0,0
13.01.2018 01:00:00 4,7 4,6 13 7 21 11 E 1021,2 3,5 -
13.01.2018 00:00:00 4,9 4,8 13 7 24 13 ESE 1022,1 2,7 0,0
12.01.2018 23:00:00 5,2 5,1 15 8 24 13 E 1022,6 1,1 0,0
12.01.2018 22:00:00 5,6 5,3 11 6 24 13 E 1023,5 2,5 -
12.01.2018 21:00:00 5,8 5,5 13 7 21 11 ESE 1023,9 2,2 0,0
12.01.2018 20:00:00 6,1 5,7 15 8 22 12 ENE 1024,1 1,3 0,0
12.01.2018 19:00:00 6,9 6,3 13 7 18 10 ENE 1024,0 9 -
12.01.2018 18:00:00 7,1 6,0 9 5 18 10 NE 1024,0 10 0,0
12.01.2018 17:00:00 9,2 6,5 13 7 16 9 NE 1024,0 10 0,0
12.01.2018 16:00:00 10,4 7,1 11 6 16 9 N 1023,9 10 -
12.01.2018 15:00:00 11,0 6,7 5 3 15 8 NE 1024,1 10 0,0
12.01.2018 14:00:00 11,3 6,2 5 3 9 5 SSW 1024,7 10 0,0
12.01.2018 13:00:00 9,0 8,1 4 2 11 6 - 1025,3 10 -
12.01.2018 12:00:00 6,6 6,5 2 1 5 3 - 1025,9 10 0,0
12.01.2018 11:00:00 3,6 3,5 0 0 5 3 N 1026,2 5 0,0
12.01.2018 10:00:00 1,3 1,2 5 3 8 4 E 1026,1 0,4 -
12.01.2018 09:00:00 0,6 0,5 5 3 8 4 SSE 1025,7 0,3 0,0
12.01.2018 08:00:00 0,3 0,2 4 2 5 3 SE 1025,6 1,3 0,0
12.01.2018 07:00:00 0,5 0,4 4 2 9 5 E 1025,2 10 -
12.01.2018 06:00:00 0,7 0,6 5 3 5 3 E 1025,2 10 0,0
12.01.2018 05:00:00 0,4 0,3 5 3 8 4 E 1025,1 5 0,0
12.01.2018 04:00:00 0,5 0,4 0 0 4 2 N 1025,0 0,8 -
12.01.2018 03:00:00 0,7 0,6 0 0 5 3 N 1024,9 0,9 0,0
12.01.2018 02:00:00 0,7 0,4 0 0 5 3 N 1024,8 0,6 0,0
12.01.2018 01:00:00 1,0 0,7 0 0 4 2 N 1024,6 0,5 -
12.01.2018 00:00:00 1,1 0,8 0 0 5 3 N 1024,4 0,6 0,0
11.01.2018 23:00:00 2,3 2,0 0 0 4 2 N 1023,7 0,6 0,0
11.01.2018 22:00:00 2,3 1,9 0 0 5 3 N 1023,2 0,3 -
11.01.2018 21:00:00 3,5 3,1 4 2 9 5 SW 1022,9 1,0 0,0
11.01.2018 20:00:00 4,9 4,3 0 0 8 4 N 1021,9 5 0,0
11.01.2018 19:00:00 6,0 5,0 0 0 5 3 N 1020,9 10 -
11.01.2018 18:00:00 8,1 4,9 4 2 8 4 WNW 1020,0 10 0,0
11.01.2018 17:00:00 10,6 5,4 4 2 11 6 - 1019,0 10 0,0
11.01.2018 16:00:00 10,4 6,5 5 3 15 8 - 1018,2 10 -
11.01.2018 15:00:00 10,4 6,7 5 3 13 7 - 1017,6 10 0,0
11.01.2018 14:00:00 10,5 5,7 9 5 16 9 SSW 1017,2 10 0,0
11.01.2018 13:00:00 10,7 5,9 4 2 9 5 NNW 1017,0 19 -
11.01.2018 12:00:00 8,5 6,1 4 2 11 6 - 1017,1 10 0,8
11.01.2018 11:00:00 8,0 6,0 8 4 29 16 ENE 1016,3 9 2,0
11.01.2018 10:00:00 8,3 6,1 11 6 21 11 S 1015,5 10 -
11.01.2018 09:00:00 7,6 4,2 11 6 26 14 WSW 1015,0 45 0,2
11.01.2018 08:00:00 7,7 3,7 18 10 39 21 WSW 1014,5 10 2,0
11.01.2018 07:00:00 8,5 4,9 13 7 28 15 W 1013,9 10 -
11.01.2018 06:00:00 8,4 5,3 15 8 26 14 W 1013,9 10 0,0
11.01.2018 05:00:00 7,1 5,1 4 2 50 27 - 1013,8 10 2,0
11.01.2018 04:00:00 8,6 4,4 24 13 48 26 WSW 1013,6 10 -
11.01.2018 03:00:00 10,2 4,8 24 13 42 23 W 1013,0 10 0,0
11.01.2018 02:00:00 9,0 5,4 16 9 48 26 W 1012,6 10 1,0
11.01.2018 01:00:00 9,8 4,6 13 7 48 26 W 1012,9 10 -

tt = Température de l'air
td = dewpoint
ff = Vitesse du vent
fx = gusts
dd = Direction du vent
ppp = reduced air pressure
vv = visibility
rr = Quantités de précipitations

stations d'obs. à proximité